Weather in Akimovka

Russia / Altai Krai     51˚35′07″N   82˚35′10″E
temp.,
°C
wind,
m/s
gust,
m/s
humid.,
%
clouds,
%
prec.,
mm/h
press.,
hPa
HPBL,
m
17 january, sun
sun1701:00−12˚sse116890 0.0 102321
04:00−11˚sw1263100 0.0 102021
07:00−12˚sw2266100 0.0 101821
10:00−11˚ssw51665100 0.0 1018326
13:00−6˚sw102257100 0.0 1019726
16:00−7˚sw9186867 0.0 1021548
19:00−9˚ssw6167781 0.0 1025394
22:00−9˚ssw4127338 0.0 1025223
18 january, mon
mon1801:00−10˚ssw476919 0.0 1024113
04:00−10˚ssw476920 0.0 102193
07:00−6˚ssw7175860 0.0 1019324
10:00−7˚sw51662100 0.0 1019344
13:00−5˚sw6166589 0.0 1019433
16:00−6˚sw7147197 0.0 1019399
19:00−9˚wsw4117898 0.0 1021274
22:00−10˚sw348098 0.0 102371
19 january, tue
tue1901:00−13˚wsw128387 0.0 102321
04:00−12˚ese118398 0.0 102321
07:00−9˚sse118399 0.0 102121
10:00−9˚nne1183100 0.0 102021
13:00−4˚ssw21081100 0.0 1018337
16:00−2˚sw51569100 0.0 1018407
19:00−4˚ssw51566100 0.0 1018280
22:00−5˚ssw4126872 0.0 1018218
20 january, wed
wed2001:00−4˚ssw4126656 0.0 1018226
04:00−4˚ssw5156467 0.0 1017305
07:00−4˚ssw6186967 0.1 1016531
10:00−2˚ssw91885100 0.1 1016628
13:00−2˚ssw101886100 0.1 1017732
16:00−2˚ssw111985100 0.1 1017678
19:00−3˚ssw101887100 0.3 1018677
22:00−3˚ssw101886100 0.4 1020590
21 january, thu
thu2101:00−3˚ssw61688100 0.4 1022508
04:00−3˚ssw51589100 0.0 1021500
07:00−3˚ssw61689100 0.0 1020562
10:00−2˚ssw41591100 0.0 1018599
13:00ssw71587100 0.0 1016793
16:00sw41486100 0.0 1012837
19:00ssw31382100 0.0 1010507
22:00−2˚s2583100 0.0 1006110